Regional Weather Roundup
Issued by NWS

Home | Current Version | Previous Version | Text Only | Print | Product List | Glossary Off
Versions: 1 2 3 4 5 6 7 8 9 10 11 12 13 14 15 16 17 18 19 20 21 22 23 24 25 26 27 28 29 30 31 32 33 34 35 36 37 38 39 40 41 42 43 44 45 46 47 48 49 50

000
ASUS43 KBIS 031610
RWRND

NORTH DAKOTA REGIONAL WEATHER ROUNDUP
NATIONAL WEATHER SERVICE BISMARCK ND
1100 AM CDT FRI JUL 03 2015

NOTE: "FAIR" INDICATES FEW OR NO CLOUDS BELOW 12,000 FEET WITH NO
SIGNIFICANT WEATHER AND/OR OBSTRUCTIONS TO VISIBILITY.


NDZ001>003-009>011-017-031700-
NORTHWEST NORTH DAKOTA

CITY           SKY/WX    TMP DP  RH WIND       PRES   REMARKS
WILLISTON      SUNNY     75  63  66 CALM      30.00F HAZE
MINOT          CLOUDY    73  63  70 CALM      29.99S HAZE
MINOT AFB      MOSUNNY   76  75  94 S5        29.98F FOG
$$

NDZ018>021-031>035-040>046-031700-
SOUTHWEST NORTH DAKOTA

CITY           SKY/WX    TMP DP  RH WIND       PRES   REMARKS
BISMARCK       MOSUNNY   76  64  66 W3        30.01S HAZE
DICKINSON      SUNNY     77  62  59 S5        30.01F HAZE
GARRISON         N/A     73  65  75 CALM      30.00F
HETTINGER ARPT MOSUNNY   76  59  55 SW5       30.05F
$$

NDZ004>008-012>016-024-026-027-054-031700-
NORTHEAST NORTH DAKOTA

CITY           SKY/WX    TMP DP  RH WIND       PRES   REMARKS
GRAND FORKS    HAZE      76  66  71 NW5       29.93S VSB 1
GRND FRKS AFB  MOSUNNY   76  64  65 N6        29.94S HAZE
DEVILS LAKE    SUNNY     73  63  68 NW3       29.97S
$$

NDZ022-023-025-028>030-036>039-047>053-031700-
SOUTHEAST NORTH DAKOTA

CITY           SKY/WX    TMP DP  RH WIND       PRES   REMARKS
FARGO          MOSUNNY   76  66  71 CALM      29.93S HAZE
JAMESTOWN      CLOUDY    74  67  78 N8        29.97S HAZE
$$




USA.gov is the U.S. government's official web portal to all federal, state and local government web resources and services.